Location: Newark
(25.6108°S, 54.5803°W)
Time: 21:17:07
(UTC+00:00)

Courier 1B - Pass Details

Date: 27 October 2020
Orbit: 962 x 1209 km, 28.3° (Epoch: 24 November)

Event Time Altitude Azimuth Distance (km) Brightness Sun altitude
Rises 07:40:47 0° 257° (WSW) 4,116 - -16.2°
Reaches altitude 10° 07:43:42 10° 259° (W) 3,138 - -15.6°
Exits shadow 07:44:45 15° 261° (W) 2,794 9.4 -15.4°
Maximum altitude 07:51:27 65° 339° (NNW) 1,268 7.9 -14.0°
Drops below altitude 10° 07:58:48 10° 59° (ENE) 2,987 10.6 -12.5°
Sets 08:01:31 0° 62° (ENE) 3,907 11.3 -11.9°
